QPF
0.03 0.05 0.04 0.04 0.05 0.08 0.14 0.14 0.16 0.19 0.17 0.13 0.12 0.11 0.11 0.10 0.09 0.08 0.07 0.06 0.05 0.05 0.06 0.07 0.07 0.05 0.05 0.05 0.06 0.07 0.05 0.04 0.03 0.03 0.03 0.02 0.01 0.01 0.01 0.00 0.00 0.00 0.00
0.02 0.06 0.06 0.07 0.07 0.08 0.14 0.15 0.13 0.14 0.15 0.12 0.11 0.11 0.11 0.10 0.09 0.09 0.11 0.07 0.06 0.06 0.04 0.07 0.06 0.05 0.07 0.08 0.07 0.07 0.06 0.04 0.02 0.03 0.04 0.04 0.03 0.02 0.01 0.01 0.00 0.00 0.00
0.02 0.03 0.08 0.12 0.08 0.08 0.11 0.14 0.13 0.12 0.14 0.13 0.14 0.15 0.15 0.12 0.12 0.13 0.11 0.08 0.06 0.05 0.06 0.06 0.05 0.04 0.04 0.05 0.06 0.05 0.05 0.05 0.04 0.03 0.04 0.05 0.05 0.03 0.02 0.01 0.01 0.00 0.00
0.01 0.02 0.04 0.07 0.07 0.07 0.10 0.15 0.16 0.14 0.15 0.15 0.14 0.12 0.09 0.08 0.08 0.08 0.09 0.08 0.07 0.05 0.05 0.04 0.04 0.04 0.05 0.06 0.05 0.04 0.03 0.04 0.04 0.03 0.02 0.03 0.04 0.05 0.04 0.02 0.01 0.01 0.00
0.01 0.02 0.03 0.05 0.07 0.07 0.09 0.12 0.16 0.16 0.16 0.17 0.16 0.15 0.12 0.12 0.12 0.11 0.11 0.09 0.08 0.07 0.04 0.03 0.04 0.04 0.05 0.06 0.06 0.05 0.03 0.03 0.03 0.02 0.02 0.02 0.02 0.03 0.03 0.03 0.02 0.01 0.00
0.01 0.02 0.03 0.05 0.06 0.07 0.09 0.11 0.14 0.15 0.16 0.16 0.17 0.17 0.15 0.15 0.14 0.12 0.10 0.08 0.08 0.07 0.05 0.02 0.03 0.04 0.05 0.05 0.04 0.04 0.03 0.03 0.03 0.02 0.01 0.02 0.02 0.01 0.02 0.02 0.02 0.02 0.01
0.01 0.02 0.03 0.05 0.06 0.05 0.07 0.10 0.12 0.14 0.13 0.14 0.16 0.16 0.16 0.16 0.14 0.11 0.09 0.08 0.06 0.04 0.04 0.04 0.04 0.04 0.05 0.04 0.04 0.03 0.04 0.03 0.02 0.01 0.01 0.01 0.01 0.01 0.01 0.01 0.02 0.02 0.02
0.00 0.01 0.02 0.04 0.05 0.05 0.06 0.09 0.10 0.13 0.14 0.12 0.16 0.18 0.15 0.15 0.13 0.12 0.10 0.08 0.06 0.05 0.04 0.04 0.04 0.04 0.03 0.04 0.04 0.03 0.02 0.02 0.02 0.01 0.01 0.01 0.00 0.01 0.01 0.02 0.02 0.03 0.02
0.00 0.01 0.01 0.03 0.04 0.05 0.05 0.06 0.10 0.12 0.14 0.12 0.15 0.18 0.16 0.16 0.13 0.10 0.08 0.06 0.08 0.07 0.06 0.04 0.04 0.04 0.04 0.04 0.04 0.04 0.03 0.03 0.02 0.01 0.01 0.01 0.01 0.01 0.01 0.01 0.01 0.02 0.01
0.00 0.01 0.02 0.04 0.05 0.05 0.06 0.07 0.09 0.11 0.12 0.12 0.10 0.11 0.16 0.16 0.13 0.10 0.07 0.07 0.08 0.08 0.08 0.04 0.03 0.03 0.04 0.04 0.04 0.03 0.03 0.03 0.03 0.02 0.02 0.02 0.01 0.01 0.01 0.01 0.01 0.00 0.00
0.00 0.01 0.02 0.04 0.07 0.06 0.05 0.06 0.08 0.11 0.11 0.10 0.09 0.10 0.13 0.14 0.13 0.10 0.07 0.07 0.08 0.09 0.07 0.05 0.04 0.03 0.03 0.03 0.03 0.02 0.02 0.02 0.02 0.01 0.02 0.01 0.01 0.02 0.01 0.01 0.00 0.00 0.01
0.00 0.00 0.02 0.03 0.06 0.12 0.10 0.05 0.06 0.07 0.09 0.09 0.09 0.11 0.12 0.12 0.12 0.08 0.07 0.08 0.07 0.06 0.05 0.04 0.03 0.03 0.03 0.03 0.02 0.01 0.01 0.01 0.02 0.01 0.03 0.02 0.02 0.02 0.01 0.02 0.01 0.01 0.01
0.00 0.00 0.01 0.02 0.03 0.08 0.10 0.05 0.04 0.05 0.05 0.07 0.08 0.09 0.09 0.09 0.08 0.07 0.06 0.07 0.07 0.06 0.05 0.04 0.03 0.03 0.04 0.03 0.02 0.01 0.02 0.02 0.02 0.03 0.04 0.03 0.02 0.01 0.02 0.02 0.02 0.02 0.01
0.00 0.01 0.03 0.05 0.05 0.04 0.04 0.04 0.04 0.04 0.04 0.05 0.06 0.07 0.05 0.05 0.05 0.05 0.05 0.05 0.05 0.05 0.05 0.04 0.03 0.03 0.04 0.03 0.03 0.02 0.02 0.02 0.02 0.03 0.03 0.03 0.02 0.02 0.03 0.02 0.02 0.03 0.02
0.00 0.01 0.02 0.04 0.06 0.05 0.04 0.04 0.04 0.05 0.05 0.04 0.04 0.05 0.04 0.04 0.04 0.05 0.06 0.05 0.05 0.05 0.05 0.04 0.04 0.04 0.04 0.03 0.04 0.04 0.03 0.03 0.03 0.03 0.03 0.03 0.03 0.02 0.02 0.01 0.01 0.01 0.01
0.01 0.01 0.02 0.03 0.03 0.04 0.04 0.04 0.06 0.07 0.06 0.05 0.05 0.05 0.04 0.04 0.04 0.05 0.06 0.06 0.05 0.05 0.06 0.06 0.06 0.05 0.03 0.03 0.03 0.04 0.05 0.06 0.05 0.05 0.05 0.04 0.03 0.02 0.01 0.00 0.00 0.00 0.01
0.01 0.01 0.01 0.03 0.04 0.04 0.04 0.04 0.05 0.06 0.07 0.08 0.09 0.08 0.07 0.06 0.05 0.06 0.08 0.07 0.08 0.09 0.10 0.10 0.10 0.09 0.08 0.07 0.05 0.04 0.04 0.04 0.05 0.05 0.05 0.03 0.02 0.02 0.01 0.02 0.01 0.01 0.01
0.01 0.02 0.02 0.02 0.03 0.05 0.05 0.04 0.05 0.06 0.06 0.08 0.10 0.11 0.09 0.08 0.09 0.10 0.11 0.11 0.13 0.13 0.12 0.12 0.12 0.12 0.10 0.10 0.05 0.03 0.03 0.03 0.03 0.04 0.04 0.04 0.04 0.04 0.05 0.05 0.04 0.04 0.03
0.01 0.01 0.01 0.02 0.02 0.03 0.04 0.07 0.09 0.09 0.09 0.09 0.10 0.11 0.11 0.12 0.14 0.13 0.13 0.12 0.12 0.10 0.10 0.11 0.13 0.12 0.11 0.11 0.06 0.04 0.03 0.03 0.03 0.03 0.04 0.05 0.05 0.07 0.06 0.06 0.06 0.06 0.06
0.03 0.02 0.02 0.03 0.04 0.04 0.05 0.07 0.10 0.13 0.15 0.15 0.17 0.19 0.21 0.20 0.20 0.19 0.16 0.15 0.14 0.13 0.15 0.16 0.17 0.16 0.16 0.16 0.11 0.08 0.06 0.05 0.04 0.05 0.06 0.05 0.06 0.06 0.07 0.06 0.06 0.05 0.05
0.02 0.02 0.03 0.04 0.05 0.05 0.06 0.09 0.13 0.14 0.13 0.13 0.18 0.24 0.25 0.25 0.22 0.20 0.19 0.20 0.18 0.18 0.17 0.18 0.18 0.18 0.18 0.19 0.16 0.12 0.09 0.07 0.08 0.08 0.09 0.10 0.10 0.08 0.08 0.06 0.05 0.04 0.04
0.02 0.01 0.02 0.03 0.05 0.07 0.08 0.08 0.10 0.11 0.10 0.11 0.14 0.19 0.22 0.22 0.23 0.22 0.22 0.23 0.22 0.22 0.22 0.22 0.21 0.19 0.17 0.16 0.13 0.11 0.09 0.09 0.09 0.09 0.10 0.10 0.09 0.06 0.04 0.03 0.02 0.02 0.02
0.03 0.03 0.03 0.03 0.04 0.05 0.07 0.08 0.08 0.10 0.10 0.10 0.13 0.15 0.17 0.18 0.20 0.19 0.17 0.17 0.18 0.20 0.21 0.22 0.20 0.18 0.17 0.17 0.14 0.11 0.10 0.09 0.07 0.07 0.06 0.06 0.05 0.03 0.02 0.02 0.02 0.02 0.02
0.03 0.04 0.05 0.05 0.05 0.04 0.05 0.06 0.08 0.10 0.11 0.09 0.10 0.11 0.12 0.13 0.14 0.15 0.16 0.17 0.18 0.18 0.18 0.20 0.20 0.17 0.15 0.14 0.13 0.11 0.10 0.09 0.08 0.07 0.06 0.06 0.05 0.05 0.04 0.05 0.05 0.05 0.04
0.04 0.05 0.05 0.06 0.05 0.04 0.03 0.04 0.06 0.08 0.10 0.11 0.09 0.09 0.11 0.12 0.15 0.18 0.18 0.18 0.19 0.18 0.16 0.16 0.15 0.14 0.12 0.10 0.10 0.09 0.08 0.07 0.07 0.05 0.05 0.05 0.04 0.04 0.05 0.06 0.05 0.06 0.06
0.04 0.05 0.05 0.04 0.03 0.03 0.03 0.03 0.04 0.06 0.07 0.09 0.09 0.08 0.08 0.09 0.11 0.12 0.12 0.13 0.12 0.11 0.10 0.08 0.08 0.07 0.07 0.06 0.06 0.06 0.06 0.05 0.04 0.05 0.05 0.07 0.08 0.09 0.09 0.09 0.09 0.09 0.10
MSLP
1003.47 1004.03 1004.59 1005.13 1005.65 1006.15 1006.68 1007.26 1007.90 1008.61 1009.35 1010.09 1010.77 1011.34 1011.77 1012.06 1012.23 1012.32 1012.40 1012.54 1012.77 1013.12 1013.60 1014.18 1014.80 1015.41 1015.98 1016.45 1016.83 1017.12 1017.34 1017.52 1017.69 1017.86 1018.03 1018.20 1018.33 1018.43 1018.47 1018.45 1018.41 1018.36 1018.34
1003.54 1004.17 1004.76 1005.28 1005.74 1006.16 1006.59 1007.07 1007.66 1008.35 1009.12 1009.92 1010.68 1011.34 1011.85 1012.18 1012.36 1012.44 1012.48 1012.55 1012.73 1013.04 1013.50 1014.07 1014.72 1015.37 1015.97 1016.49 1016.91 1017.22 1017.46 1017.65 1017.83 1018.00 1018.19 1018.36 1018.50 1018.59 1018.61 1018.56 1018.47 1018.36 1018.27
1003.43 1004.10 1004.70 1005.20 1005.60 1005.94 1006.28 1006.68 1007.21 1007.88 1008.67 1009.53 1010.39 1011.15 1011.77 1012.19 1012.44 1012.54 1012.59 1012.64 1012.78 1013.06 1013.48 1014.04 1014.67 1015.33 1015.94 1016.48 1016.91 1017.24 1017.49 1017.70 1017.89 1018.08 1018.28 1018.47 1018.63 1018.72 1018.74 1018.67 1018.54 1018.38 1018.23
1003.18 1003.84 1004.43 1004.90 1005.25 1005.52 1005.78 1006.11 1006.59 1007.23 1008.04 1008.95 1009.89 1010.76 1011.50 1012.04 1012.38 1012.56 1012.64 1012.71 1012.85 1013.10 1013.49 1014.01 1014.62 1015.25 1015.86 1016.39 1016.83 1017.17 1017.44 1017.66 1017.87 1018.09 1018.31 1018.52 1018.69 1018.80 1018.82 1018.75 1018.60 1018.41 1018.22
1002.87 1003.49 1004.06 1004.51 1004.82 1005.04 1005.24 1005.51 1005.93 1006.53 1007.33 1008.26 1009.25 1010.21 1011.05 1011.70 1012.15 1012.42 1012.58 1012.70 1012.85 1013.10 1013.46 1013.95 1014.52 1015.12 1015.70 1016.22 1016.66 1017.00 1017.28 1017.53 1017.76 1018.00 1018.25 1018.48 1018.68 1018.81 1018.85 1018.78 1018.63 1018.42 1018.19
1002.60 1003.18 1003.72 1004.15 1004.45 1004.65 1004.81 1005.03 1005.39 1005.94 1006.69 1007.60 1008.60 1009.59 1010.49 1011.23 1011.77 1012.14 1012.38 1012.56 1012.75 1013.01 1013.36 1013.82 1014.35 1014.92 1015.47 1015.97 1016.40 1016.75 1017.04 1017.31 1017.56 1017.83 1018.10 1018.36 1018.58 1018.73 1018.79 1018.74 1018.59 1018.38 1018.14
1002.46 1003.00 1003.53 1003.97 1004.29 1004.49 1004.65 1004.84 1005.14 1005.62 1006.29 1007.13 1008.07 1009.03 1009.94 1010.71 1011.31 1011.75 1012.06 1012.31 1012.54 1012.82 1013.17 1013.61 1014.12 1014.65 1015.17 1015.65 1016.07 1016.43 1016.74 1017.02 1017.29 1017.57 1017.86 1018.14 1018.38 1018.55 1018.63 1018.61 1018.49 1018.29 1018.06
1002.47 1002.99 1003.54 1004.03 1004.40 1004.65 1004.84 1005.02 1005.28 1005.68 1006.25 1006.97 1007.80 1008.67 1009.51 1010.25 1010.86 1011.33 1011.69 1011.98 1012.26 1012.56 1012.92 1013.36 1013.84 1014.35 1014.85 1015.31 1015.72 1016.08 1016.40 1016.69 1016.97 1017.26 1017.55 1017.84 1018.09 1018.28 1018.39 1018.40 1018.32 1018.17 1017.97
1002.61 1003.14 1003.74 1004.30 1004.76 1005.11 1005.36 1005.57 1005.81 1006.14 1006.59 1007.17 1007.85 1008.57 1009.29 1009.95 1010.51 1010.97 1011.35 1011.67 1011.97 1012.30 1012.68 1013.10 1013.57 1014.06 1014.55 1014.99 1015.39 1015.75 1016.06 1016.34 1016.62 1016.90 1017.19 1017.47 1017.72 1017.94 1018.07 1018.13 1018.10 1018.00 1017.85
1002.79 1003.36 1004.03 1004.69 1005.27 1005.74 1006.08 1006.36 1006.61 1006.89 1007.24 1007.68 1008.20 1008.76 1009.32 1009.86 1010.34 1010.75 1011.10 1011.43 1011.75 1012.09 1012.47 1012.90 1013.37 1013.84 1014.30 1014.73 1015.12 1015.45 1015.74 1016.01 1016.27 1016.53 1016.79 1017.05 1017.30 1017.52 1017.69 1017.80 1017.84 1017.81 1017.73
1002.92 1003.54 1004.28 1005.05 1005.75 1006.35 1006.82 1007.18 1007.47 1007.75 1008.04 1008.37 1008.74 1009.14 1009.55 1009.96 1010.33 1010.67 1010.99 1011.30 1011.62 1011.97 1012.36 1012.78 1013.23 1013.69 1014.13 1014.53 1014.89 1015.20 1015.47 1015.70 1015.93 1016.15 1016.37 1016.61 1016.84 1017.06 1017.26 1017.41 1017.52 1017.58 1017.59
1002.95 1003.59 1004.39 1005.22 1006.03 1006.74 1007.33 1007.79 1008.16 1008.46 1008.74 1009.00 1009.28 1009.57 1009.86 1010.15 1010.43 1010.71 1010.98 1011.26 1011.57 1011.92 1012.30 1012.71 1013.14 1013.58 1013.99 1014.37 1014.70 1014.98 1015.21 1015.40 1015.58 1015.76 1015.94 1016.14 1016.35 1016.57 1016.78 1016.98 1017.16 1017.30 1017.40
1002.88 1003.51 1004.29 1005.15 1005.99 1006.77 1007.45 1008.01 1008.46 1008.83 1009.13 1009.39 1009.63 1009.86 1010.08 1010.30 1010.52 1010.75 1010.99 1011.25 1011.54 1011.87 1012.23 1012.63 1013.04 1013.44 1013.83 1014.18 1014.47 1014.72 1014.91 1015.07 1015.21 1015.34 1015.48 1015.64 1015.83 1016.04 1016.26 1016.50 1016.73 1016.94 1017.13
1002.78 1003.33 1004.04 1004.83 1005.64 1006.42 1007.13 1007.75 1008.27 1008.71 1009.07 1009.37 1009.64 1009.87 1010.09 1010.29 1010.49 1010.69 1010.91 1011.15 1011.42 1011.73 1012.08 1012.45 1012.83 1013.20 1013.56 1013.88 1014.15 1014.37 1014.54 1014.68 1014.79 1014.89 1015.00 1015.13 1015.29 1015.48 1015.71 1015.97 1016.24 1016.50 1016.75
1002.76 1003.18 1003.73 1004.38 1005.06 1005.76 1006.43 1007.05 1007.61 1008.11 1008.54 1008.92 1009.25 1009.53 1009.79 1010.02 1010.23 1010.44 1010.65 1010.89 1011.14 1011.43 1011.75 1012.09 1012.44 1012.79 1013.12 1013.42 1013.68 1013.89 1014.06 1014.19 1014.29 1014.38 1014.48 1014.59 1014.73 1014.92 1015.14 1015.40 1015.68 1015.98 1016.26
1002.97 1003.21 1003.55 1003.97 1004.45 1004.98 1005.53 1006.09 1006.63 1007.16 1007.65 1008.10 1008.51 1008.87 1009.20 1009.48 1009.73 1009.96 1010.19 1010.42 1010.66 1010.92 1011.21 1011.51 1011.84 1012.16 1012.48 1012.77 1013.04 1013.27 1013.46 1013.61 1013.73 1013.84 1013.94 1014.05 1014.19 1014.36 1014.57 1014.82 1015.10 1015.39 1015.67
1003.50 1003.55 1003.64 1003.80 1004.02 1004.32 1004.69 1005.11 1005.58 1006.08 1006.60 1007.10 1007.58 1008.02 1008.41 1008.76 1009.05 1009.32 1009.55 1009.77 1010.00 1010.23 1010.49 1010.77 1011.06 1011.37 1011.68 1011.99 1012.28 1012.54 1012.77 1012.97 1013.13 1013.28 1013.41 1013.54 1013.68 1013.85 1014.04 1014.26 1014.51 1014.77 1015.03
1004.42 1004.29 1004.14 1004.03 1003.97 1004.01 1004.15 1004.39 1004.74 1005.17 1005.66 1006.17 1006.68 1007.17 1007.62 1008.01 1008.34 1008.61 1008.85 1009.06 1009.26 1009.47 1009.69 1009.94 1010.22 1010.52 1010.84 1011.17 1011.49 1011.80 1012.08 1012.34 1012.56 1012.75 1012.92 1013.08 1013.23 1013.39 1013.57 1013.76 1013.96 1014.17 1014.38
1005.69 1005.42 1005.07 1004.72 1004.42 1004.20 1004.10 1004.15 1004.34 1004.66 1005.08 1005.56 1006.06 1006.56 1007.01 1007.42 1007.75 1008.03 1008.25 1008.44 1008.62 1008.79 1008.99 1009.21 1009.47 1009.77 1010.10 1010.45 1010.80 1011.16 1011.49 1011.79 1012.07 1012.31 1012.51 1012.70 1012.86 1013.01 1013.17 1013.32 1013.48 1013.63 1013.77
1007.19 1006.84 1006.38 1005.85 1005.35 1004.92 1004.62 1004.48 1004.52 1004.71 1005.02 1005.43 1005.88 1006.34 1006.77 1007.15 1007.46 1007.71 1007.91 1008.07 1008.21 1008.35 1008.52 1008.73 1008.98 1009.27 1009.60 1009.96 1010.34 1010.71 1011.08 1011.41 1011.71 1011.98 1012.20 1012.40 1012.56 1012.70 1012.83 1012.95 1013.05 1013.15 1013.23
1008.78 1008.43 1007.91 1007.30 1006.67 1006.11 1005.67 1005.38 1005.28 1005.34 1005.55 1005.86 1006.23 1006.61 1006.98 1007.30 1007.57 1007.77 1007.93 1008.05 1008.16 1008.28 1008.43 1008.62 1008.85 1009.14 1009.46 1009.81 1010.18 1010.55 1010.90 1011.22 1011.51 1011.77 1011.98 1012.16 1012.30 1012.43 1012.53 1012.61 1012.67 1012.72 1012.75
1010.31 1010.00 1009.50 1008.88 1008.23 1007.61 1007.09 1006.72 1006.52 1006.48 1006.58 1006.78 1007.06 1007.35 1007.64 1007.88 1008.08 1008.23 1008.34 1008.43 1008.51 1008.61 1008.74 1008.91 1009.14 1009.40 1009.69 1010.01 1010.34 1010.65 1010.95 1011.22 1011.45 1011.65 1011.82 1011.95 1012.06 1012.15 1012.22 1012.27 1012.30 1012.32 1012.31
1011.66 1011.43 1011.00 1010.44 1009.83 1009.23 1008.71 1008.30 1008.05 1007.94 1007.96 1008.07 1008.24 1008.44 1008.63 1008.80 1008.92 1009.02 1009.08 1009.14 1009.20 1009.29 1009.41 1009.57 1009.77 1010.00 1010.25 1010.51 1010.76 1010.99 1011.19 1011.36 1011.49 1011.60 1011.68 1011.74 1011.79 1011.83 1011.87 1011.90 1011.92 1011.91 1011.88
1012.77 1012.62 1012.29 1011.84 1011.31 1010.79 1010.31 1009.93 1009.67 1009.52 1009.48 1009.51 1009.59 1009.70 1009.80 1009.89 1009.95 1009.99 1010.03 1010.07 1010.12 1010.21 1010.32 1010.47 1010.64 1010.83 1011.02 1011.19 1011.34 1011.45 1011.53 1011.56 1011.57 1011.56 1011.53 1011.51 1011.49 1011.48 1011.49 1011.49 1011.50 1011.50 1011.47
1013.62 1013.55 1013.33 1012.98 1012.57 1012.15 1011.75 1011.43 1011.18 1011.02 1010.93 1010.91 1010.92 1010.94 1010.96 1010.98 1010.99 1011.00 1011.01 1011.05 1011.10 1011.19 1011.30 1011.44 1011.59 1011.72 1011.84 1011.92 1011.95 1011.94 1011.88 1011.77 1011.65 1011.51 1011.38 1011.26 1011.17 1011.12 1011.09 1011.09 1011.10 1011.10 1011.09
1014.27 1014.25 1014.11 1013.87 1013.57 1013.25 1012.94 1012.67 1012.45 1012.29 1012.17 1012.09 1012.04 1012.00 1011.96 1011.93 1011.90 1011.88 1011.89 1011.92 1011.99 1012.09 1012.20 1012.33 1012.44 1012.53 1012.58 1012.57 1012.50 1012.37 1012.18 1011.95 1011.71 1011.46 1011.24 1011.05 1010.91 1010.82 1010.77 1010.76 1010.78 1010.79 1010.80
Thickness
5810 5806 5800 5795 5789 5783 5777 5772 5767 5763 5758 5754 5750 5749 5747 5749 5750 5751 5749 5748 5747 5746 5746 5746 5743 5743 5741 5740 5739 5738 5736 5736 5738 5735 5733 5736 5739 5739 5739 5739 5739 5738 5737
5804 5795 5791 5787 5783 5777 5773 5768 5765 5761 5758 5754 5752 5750 5748 5747 5748 5749 5747 5746 5746 5745 5745 5744 5742 5742 5740 5739 5738 5737 5735 5736 5738 5733 5728 5724 5727 5734 5740 5739 5738 5738 5737
5801 5793 5787 5781 5778 5774 5770 5767 5763 5760 5756 5753 5749 5747 5744 5743 5743 5744 5744 5745 5744 5744 5744 5743 5742 5741 5739 5737 5736 5736 5733 5732 5735 5736 5730 5723 5720 5725 5733 5737 5738 5738 5737
5801 5793 5786 5780 5776 5773 5770 5766 5762 5758 5754 5751 5747 5744 5741 5738 5741 5742 5742 5743 5743 5743 5743 5742 5742 5740 5739 5737 5736 5736 5735 5733 5730 5733 5735 5733 5730 5724 5722 5730 5736 5737 5735
5802 5793 5787 5781 5777 5773 5768 5764 5760 5755 5752 5749 5746 5743 5741 5740 5741 5741 5741 5740 5741 5742 5741 5741 5741 5739 5738 5737 5736 5735 5735 5734 5732 5731 5732 5732 5732 5732 5725 5722 5727 5732 5735
5801 5793 5788 5781 5774 5771 5768 5762 5756 5752 5750 5747 5744 5742 5740 5738 5737 5737 5737 5738 5738 5739 5740 5740 5739 5738 5737 5736 5735 5734 5734 5733 5733 5733 5733 5732 5730 5729 5729 5726 5725 5727 5732
5798 5791 5784 5777 5772 5769 5766 5761 5755 5750 5748 5745 5742 5741 5739 5737 5736 5737 5736 5736 5737 5737 5738 5739 5737 5737 5736 5735 5734 5733 5732 5732 5732 5731 5732 5734 5735 5735 5733 5729 5727 5728 5731
5797 5791 5784 5778 5773 5769 5765 5760 5753 5749 5747 5744 5741 5740 5738 5736 5736 5736 5736 5737 5738 5738 5738 5738 5736 5735 5735 5734 5733 5732 5732 5732 5731 5732 5732 5732 5734 5736 5734 5731 5727 5723 5725
5796 5790 5785 5779 5774 5769 5764 5760 5754 5749 5746 5743 5740 5738 5737 5736 5736 5736 5737 5738 5738 5738 5737 5736 5734 5734 5733 5732 5731 5730 5730 5731 5730 5730 5731 5731 5732 5734 5734 5734 5731 5723 5716
5795 5790 5784 5778 5773 5768 5763 5759 5754 5750 5746 5742 5740 5738 5736 5736 5736 5736 5736 5737 5737 5738 5735 5734 5733 5732 5731 5730 5729 5729 5730 5729 5728 5729 5730 5729 5730 5731 5732 5732 5731 5728 5722
5795 5789 5784 5778 5772 5766 5762 5757 5752 5748 5745 5742 5740 5739 5738 5737 5737 5736 5736 5737 5737 5736 5734 5732 5731 5730 5729 5729 5727 5727 5728 5726 5726 5727 5728 5727 5727 5727 5728 5728 5727 5726 5723
5796 5791 5784 5777 5770 5763 5760 5756 5753 5749 5746 5743 5741 5739 5738 5737 5736 5736 5736 5736 5735 5734 5733 5731 5730 5729 5728 5727 5726 5725 5726 5725 5725 5725 5725 5724 5724 5723 5723 5722 5722 5721 5721
5794 5789 5782 5776 5769 5764 5759 5756 5753 5750 5747 5744 5742 5740 5738 5737 5736 5737 5737 5736 5735 5733 5732 5730 5729 5728 5728 5727 5726 5725 5725 5725 5725 5724 5723 5722 5721 5719 5719 5718 5717 5717 5717
5789 5784 5778 5772 5768 5765 5761 5758 5755 5753 5750 5746 5743 5740 5739 5738 5738 5738 5737 5736 5735 5733 5732 5731 5729 5728 5727 5726 5725 5724 5723 5723 5723 5723 5722 5721 5719 5717 5716 5714 5712 5712 5710
5783 5779 5774 5770 5766 5764 5761 5759 5757 5756 5753 5749 5745 5742 5741 5740 5739 5738 5736 5735 5734 5733 5732 5730 5729 5728 5727 5726 5725 5723 5722 5721 5720 5720 5719 5719 5717 5716 5714 5712 5709 5707 5704
5777 5776 5773 5770 5766 5763 5761 5760 5758 5757 5755 5750 5747 5745 5743 5740 5739 5737 5736 5734 5733 5733 5731 5729 5727 5726 5727 5726 5724 5723 5721 5719 5717 5715 5715 5715 5714 5712 5710 5708 5705 5703 5700
5770 5770 5770 5768 5765 5764 5762 5760 5759 5758 5755 5751 5748 5746 5743 5741 5739 5738 5736 5734 5732 5731 5729 5727 5726 5724 5724 5723 5722 5720 5719 5717 5715 5713 5711 5710 5712 5709 5707 5704 5701 5699 5696
5764 5764 5765 5766 5765 5764 5763 5761 5759 5756 5753 5750 5748 5746 5743 5740 5739 5737 5735 5733 5731 5729 5727 5725 5724 5722 5721 5720 5718 5716 5714 5713 5712 5710 5708 5706 5705 5704 5701 5699 5696 5694 5692
5756 5758 5761 5762 5762 5761 5760 5758 5755 5753 5750 5748 5746 5745 5743 5739 5737 5734 5733 5731 5728 5726 5724 5722 5721 5719 5717 5715 5713 5710 5709 5707 5706 5705 5704 5702 5699 5697 5694 5691 5689 5688 5687
5747 5749 5752 5754 5753 5755 5756 5753 5749 5747 5744 5744 5743 5743 5741 5738 5734 5731 5729 5728 5725 5722 5720 5718 5716 5714 5712 5709 5706 5703 5702 5700 5699 5698 5697 5695 5692 5690 5687 5683 5681 5678 5677
5736 5739 5741 5741 5742 5745 5746 5744 5742 5740 5741 5741 5740 5738 5735 5733 5729 5727 5724 5722 5719 5716 5712 5710 5708 5707 5704 5701 5698 5695 5694 5693 5691 5691 5689 5686 5683 5680 5677 5674 5672 5669 5666
5724 5727 5727 5726 5729 5732 5734 5732 5730 5732 5734 5734 5732 5730 5728 5726 5723 5720 5717 5714 5711 5707 5704 5701 5699 5698 5696 5694 5690 5687 5684 5684 5682 5680 5679 5676 5673 5670 5667 5664 5662 5659 5655
5710 5712 5713 5713 5715 5717 5719 5719 5719 5722 5723 5722 5719 5718 5717 5715 5713 5711 5708 5705 5702 5699 5696 5693 5690 5689 5687 5685 5682 5679 5675 5673 5671 5669 5666 5663 5661 5659 5657 5653 5651 5647 5644
5696 5698 5699 5698 5699 5702 5704 5707 5710 5711 5711 5709 5707 5706 5704 5702 5700 5698 5696 5693 5690 5687 5686 5683 5681 5679 5676 5674 5671 5669 5665 5662 5659 5657 5655 5653 5650 5647 5645 5643 5640 5637 5634
5683 5684 5684 5683 5684 5687 5690 5694 5696 5698 5698 5697 5695 5693 5692 5689 5685 5682 5678 5677 5673 5673 5673 5671 5669 5666 5662 5658 5656 5655 5653 5651 5648 5644 5644 5643 5641 5638 5635 5633 5631 5628 5624
5669 5670 5671 5671 5672 5675 5677 5680 5682 5685 5685 5684 5684 5684 5682 5680 5677 5672 5665 5660 5660 5658 5657 5656 5654 5650 5648 5646 5644 5642 5640 5638 5635 5632 5632 5631 5628 5625 5623 5620 5617 5614 5610